Regional Weather Roundup
Issued by NWS Kansas City/Pleasant Hill, MO

Home | Current Version | Previous Version | Graphics & Text | Print | Product List | Glossary Off
Versions: 1 2 3 4 5 6 7 8 9 10 11 12 13 14 15 16 17 18 19 20 21 22 23 24 25 26 27 28 29 30 31 32 33 34 35 36 37 38 39 40 41 42 43 44 45 46 47 48 49 50

000
ASUS43 KEAX 210704
RWREAX

WEATHER ROUNDUP FOR EASTERN KANSAS AND NORTHWEST MISSOURI
NATIONAL WEATHER SERVICE KANSAS CITY/PLEASANT HILL MO
200 AM CDT TUE OCT 21 2014

KSZ040-057-103>105-MOZ028-029-037-043-210800-
...KANSAS CITY METROPOLITAN AREA...

CITY           SKY/WX    TMP DP  RH WIND       PRES   REMARKS
K.C. INTL      CLEAR     53  41  63 SE3       30.07F
K.C. DOWNTOWN  CLEAR     51  47  86 CALM      30.08S
LEES SUMMIT    CLEAR     55  44  66 CALM      30.08S
OLATHE - IXD   CLEAR     47  43  86 CALM      30.09R
OLATHE - OJC   CLEAR     50  45  83 CALM      30.08R
LAWRENCE       CLEAR     40  38  93 CALM      30.09R

$$

MOZ001>008-011>017-020>025-030>033-038>040-044>046-053-054-210800-
...NORTHERN AND CENTRAL MISSOURI...

CITY           SKY/WX    TMP DP  RH WIND       PRES   REMARKS
ST. JOSEPH     CLEAR     40  38  93 N3        30.08S FOG
MOSBY          SUNNY     43  43 100 CALM      30.08S
WHITEMAN AFB   NOT AVBL
CLINTON        CLEAR     46  45  93 CALM      30.09R
SEDALIA        CLEAR     48  44  86 SW6       30.08S
WARSAW         NOT AVBL
MARSHALL       CLEAR     48  46  93 CALM      30.08S
CHILLICOTHE      N/A     44  42  93 CALM      30.08S
MOBERLY        CLEAR     48  41  76 W3        30.07R
KIRKSVILLE     CLEAR     44  43  96 W3        30.07R

$$

MOZ041-047>049-056>058-063>065-088>090-097-210800-
...EASTERN AND SOUTHERN MISSOURI...

CITY           SKY/WX    TMP DP  RH WIND       PRES   REMARKS
ST. LOUIS INTL CLEAR     52  44  74 W3        30.03S
SPIRIT OF STL  CLEAR     46  44  93 CALM      30.03S
COLUMBIA       CLEAR     52  43  71 W6        30.07R
JEFFERSON CITY CLEAR     45  43  93 CALM      30.07R
MEXICO         CLEAR     48  48 100 W5        30.05S
ROLLA          CLEAR     46  41  82 SW5       30.06R
LEBANON        CLEAR     50  46  87 CALM      30.09R
OSAGE BEACH    CLEAR     45  43  93 CALM      30.08R
SPRINGFIELD    CLEAR     49  47  93 CALM      30.09R FOG
BRANSON        CLEAR     55  54  94 CALM      30.10R FOG
NEVADA         CLEAR     48  46  93 CALM      30.09S
JOPLIN         CLEAR     52  52 100 S6        30.09R FOG
WEST PLAINS    CLEAR     51  46  83 CALM      30.09R

$$

IAZ060-094-KSZ022-034>040-054-083-096-NEZ052-066-093-210800-
...KANSAS...SOUTHEAST NEBRASKA AND IOWA...

CITY           SKY/WX    TMP DP  RH WIND       PRES   REMARKS
TOPEKA         FOG       44  44 100 CALM      30.08S VSB 1/4
MANHATTAN      CLEAR     42  40  92 CALM      30.08R
EMPORIA        CLEAR     51  45  79 CALM      30.08R
CHANUTE        CLEAR     49  48  97 CALM      30.08R
WICHITA        CLEAR     55  47  74 CALM      30.07S
OMAHA          CLEAR     45  42  89 CALM      30.08R
LINCOLN        CLEAR     41  36  82 CALM      30.09R
FALLS CITY     CLEAR     43  38  82 CALM      30.08R
LAMONI         CLEAR     48  40  73 W5        30.07R
DES MOINES     CLEAR     50  41  71 N3        30.06S

$$




USA.gov is the U.S. government's official web portal to all federal, state and local government web resources and services.